COSMOS 2161

导读 | 豆包AI

COSMOS 2161是独联体(CIS)继承自苏联航天遗产后,于1991年9月28日发射入轨的“宇宙”系列卫星。作为冷战末期苏联航天活动的收尾产物,它延续了该系列军用侦察与技术试验的传统,承载着空间态势感知任务。入轨后长期运行在近地轨道,是独联体初期维持航天运行的典型代表,见证了苏联解体前后航天事业的过渡与延续。

基本信息
目录编号:
21732
目录名称:
COSMOS 2161
国际标识:
1991-068E
轨道中心:
EARTH
卫星名称:
COSMOS 2161
卫星全名:
--
卫星状态:
在轨 (已飞行12576 天)
发射日期:
1991-09-28 UTC
国别 :
俄罗斯(独联体) (CIS)
星等 :
--
轨道信息
数据来源 国际轨道数据
星历时间: 2026-03-04T04:44:49+0800
9小时前
查看轨道信息
半长轴: 7779.383km
偏心率: 0.0010119
轨道倾角: 82.583°
近地点辐角 209.682°
升交点赤经 352.491°
平近点角 213.776°
近地点: 1393.374km
远地点: 1409.118km
周期: 113.809分钟
每日圈数: 12.652755
详细信息
使用方式:
暂无
2D轨道图
3D轨道图
轨道高度分析图
轨道倾角分析图
轨道综合分析图
查看轨道综合分析图